Location: Lussas
(44.6119°N, 4.4726°E)
Time: 15:28:23
(UTC+00:00)

NOSS 3-4 (C) - Pass Details

Date: 26 November 2020
Orbit: 878 x 1334 km, 63.4° (Epoch: 25 January)

Event Time Altitude Azimuth Distance (km) Brightness Sun altitude
Rises 06:07:22 0° 249° (WSW) 3,479 5.9 -8.2°
Reaches altitude 10° 06:10:03 10° 259° (W) 2,565 5.2 -7.8°
Maximum altitude 06:15:22 33° 324° (NW) 1,509 4.1 -6.9°
Drops below altitude 10° 06:21:06 10° 27° (NNE) 2,764 5.9 -6.0°
Sets 06:24:07 0° 37° (NE) 3,789 6.8 -5.5°
